sat.trackr.live / text

‹ back to catalog

STARLINK-5366

NORAD 55499 · 2023-015BC

PAYLOAD ACTIVE UNKNOWN

§ Identity

Operator
Country
US
Launch date
2023-02-02
Launch site
AFETR
Launch vehicle
Mass (kg)
RCS (m²)

Purposes: comms

External: N2YO · Heavens-Above · Gunter

§ Orbital elements

Epoch: 2026-09-20T04:17:46.623840Z

Period
94.27 min
Inclination
43.0019°
Eccentricity
0.0001229
Mean motion
15.27575133 rev/d
Perigee alt
482.2 km
Apogee alt
483.9 km
Semi-major
6,861.2 km
B*
8.8970e-6
RAAN
321.0263°
Arg perigee
266.1053°
Mean anomaly
93.9658°
Rev number
20,109

§ Raw data

STARLINK-53661 55499U 23015BC  26263.17901185 -.00000017  00000+0  88970-5 0  99992 55499  43.0019 321.0263 0001229 266.1053  93.9658 15.27575133201096

JSON: /api/v1/satellites/55499 · /tle

For live sub-satellite position, see the globe view (requires WebGL).

§ Visibility from observer

Set your observer location to see the next 7 days of passes ≥ 10°. The values pass through the URL so the page stays shareable.

No JS? Fill the form by hand. The geolocation button needs JavaScript.